This demonstration page uses our WeatherBlox Daily Observations layout. Learn more.

Left ArrowRight Arrow

Hourly Observations for December 30, 2020

Temp ( °F °C ) Dew Point ( °F °C ) Humidity (%) Winds ( mph kmh ) Pressure ( in mb ) Visibility ( mi km ) Precip ( " mm )
12:51 am 00:51 Clear 36 2.2 30 -1.1 79 79 NW 6 9 29.99 1016 10 16.0934 0 0
1:51 am 01:51 Clear 34 1.1 30 -1.1 85 85 NW 7 11 29.99 1016 10 16.0934 0 0
2:51 am 02:51 Clear 35 1.7 30 -1.1 82 82 NW 13 20 30 1016 10 16.0934 0 0
3:51 am 03:51 Clear 34 1.1 29 -1.7 82 82 NNW 9 15 30.01 1016 10 16.0934 0 0
4:51 am 04:51 Clear 33 0.6 26 -3.3 75 75 Calm 30.03 1017 10 16.0934 0 0
5:51 am 05:51 Clear 28 -2.2 24 -4.4 85 85 N 3 6 30.07 1018 10 16.0934 0 0
6:51 am 06:51 Clear 32 0 25 -3.9 75 75 NW 3 6 30.08 1019 10 16.0934 0 0
7:51 am 07:51 Sunny 30 -1.1 23 -5 75 75 NW 5 7 30.11 1020 10 16.0934 0 0
8:51 am 08:51 Sunny 37 2.8 26 -3.3 65 65 WNW 6 9 30.11 1020 10 16.0934 0 0
9:51 am 09:51 Sunny 40 4.4 26 -3.3 58 58 WNW 6 9 30.12 1020 10 16.0934 0 0
10:51 am 10:51 Sunny 45 7.2 25 -3.9 46 46 WNW 9 15 30.09 1019 10 16.0934 0 0
11:51 am 11:51 Sunny 48 8.9 23 -5 37 37 WNW 5 7 30.07 1018 10 16.0934 0 0
12:51 pm 12:51 Sunny 52 11.1 20 -6.7 28 28 WNW 8 13 30.03 1017 10 16.0934 0 0
1:51 pm 13:51 Sunny 54 12.2 20 -6.7 26 26 W 8 13 30.01 1016 10 16.0934 0 0
2:51 pm 14:51 Sunny 55 12.8 20 -6.7 25 25 W 7 11 30 1016 10 16.0934 0 0
3:51 pm 15:51 Sunny 55 12.8 18 -7.8 23 23 W 9 15 30 1016 10 16.0934 0 0
4:51 pm 16:51 Sunny 54 12.2 18 -7.8 24 24 NW 10 17 30.01 1016 10 16.0934 0 0
5:51 pm 17:51 Clear 49 9.4 18 -7.8 29 29 NNW 10 17 30.04 1017 10 16.0934 0 0
6:51 pm 18:51 Clear 44 6.7 18 -7.8 35 35 WNW 7 11 30.05 1018 10 16.0934 0 0
7:51 pm 19:51 Clear 41 5 18 -7.8 39 39 N 6 9 30.06 1018 10 16.0934 0 0
8:51 pm 20:51 Clear 43 6.1 18 -7.8 37 37 E 7 11 30.06 1018 10 16.0934 0 0
9:51 pm 21:51 Clear 38 3.3 17 -8.3 43 43 ESE 5 7 30.09 1019 10 16.0934 0 0
10:51 pm 22:51 Clear 36 2.2 16 -8.9 44 44 SE 8 13 30.09 1019 10 16.0934 0 0
11:51 pm 23:51 Clear 33 0.6 16 -8.9 49 49 ENE 5 7 30.09 1019 10 16.0934 0 0

Powered by AerisWeather